Temperature
22 22 22 22 20 19 22 23 23 24 24 24 24 23 22 22 22 21 21 21 21 20 20 19 19 19 19 19 19 19 19 19 19 19 18 19 19 19 19 19 19 19 19 19 19 19 19 19 19
22 22 22 22 19 21 22 23 24 24 24 24 24 23 22 21 21 21 20 20 20 20 20 19 19 19 19 19 19 19 19 19 18 18 18 18 19 19 19 19 19 19 19 18 18 18 18 18 18
22 22 22 19 21 21 23 24 24 24 24 24 23 22 22 21 21 21 21 20 20 20 20 19 19 19 19 19 19 19 18 18 18 18 18 18 18 19 19 19 19 18 18 18 18 18 18 18 18
23 23 22 20 23 22 23 24 24 24 25 24 23 21 21 21 21 21 20 20 20 20 20 19 19 19 19 19 18 18 18 18 18 18 18 18 18 18 18 19 18 18 18 18 18 18 18 18 18
23 23 21 21 22 22 23 24 24 24 24 23 22 21 21 21 21 21 20 20 20 20 20 19 19 19 19 19 18 18 18 18 18 18 18 18 18 18 18 18 18 18 18 18 18 18 18 18 18
23 20 20 21 22 22 23 25 25 24 23 23 22 21 20 21 21 21 20 20 20 20 20 19 19 19 19 19 18 18 18 18 18 18 18 18 18 18 18 18 18 18 18 18 17 17 17 18 18
22 19 21 21 21 22 24 25 24 23 23 23 23 20 20 21 21 20 20 19 19 19 20 19 19 19 19 18 18 18 18 18 18 18 18 18 18 18 18 18 18 18 18 18 17 17 17 17 17
23 19 21 21 21 22 23 24 25 24 24 24 23 21 20 21 20 20 19 19 19 19 20 20 19 19 19 19 18 18 18 18 18 18 18 18 18 18 18 18 18 18 18 18 18 17 17 17 17
23 19 21 21 21 22 23 23 25 25 24 23 23 24 23 22 20 20 19 19 19 19 19 20 19 19 19 19 18 18 18 18 18 18 18 18 18 18 18 18 18 18 18 18 17 17 17 17 17
22 20 21 21 21 21 22 23 24 24 23 23 23 23 23 22 21 20 20 20 20 20 20 20 20 19 19 19 19 19 18 18 18 18 18 18 18 18 18 18 18 18 18 17 17 17 17 17 17
22 21 22 21 22 22 22 23 25 24 23 24 24 24 23 22 21 21 20 20 20 20 20 20 20 19 19 19 19 19 19 19 18 18 18 18 18 18 18 18 18 18 17 17 17 17 17 17 17
21 22 22 22 23 22 23 23 24 24 25 26 26 25 24 23 22 22 21 21 21 20 20 20 20 20 20 19 19 19 19 19 19 19 18 18 18 18 18 18 18 18 17 17 17 16 16 16 16
21 22 22 23 23 23 23 23 24 24 25 26 25 24 24 24 23 23 22 22 21 21 20 20 20 20 20 20 20 19 19 19 19 19 18 18 18 18 18 18 18 17 17 17 16 17 17 17 17
22 22 22 22 22 22 22 23 23 23 24 25 24 24 24 24 24 23 22 22 22 21 21 21 20 20 20 20 20 20 20 19 19 19 18 18 18 18 18 18 18 17 17 17 17 17 17 17 17
22 22 21 21 21 22 22 22 22 22 23 23 23 23 23 23 23 23 23 23 23 22 22 21 21 21 20 20 20 20 20 19 19 19 18 18 18 18 18 18 18 17 17 17 17 17 17 17 17
21 21 21 21 21 22 22 22 21 22 22 22 22 22 22 22 23 23 23 23 23 23 22 22 21 21 21 20 20 20 20 19 19 19 18 18 18 17 17 18 17 17 17 17 17 17 17 17 17
19 20 20 21 21 21 21 21 21 22 21 21 21 21 21 21 22 23 23 23 23 23 23 23 22 22 21 21 20 20 20 19 19 19 18 18 18 17 17 17 17 17 17 17 17 17 17 17 17
20 20 20 20 20 20 20 20 19 21 20 20 20 20 21 21 22 22 23 23 23 23 23 23 23 22 21 21 20 20 20 19 19 19 19 18 18 18 17 17 17 17 17 17 17 17 17 16 16
20 19 19 19 20 20 19 19 18 19 18 18 18 18 19 20 21 22 23 23 23 23 23 23 23 22 22 21 21 20 20 20 19 19 19 18 18 18 18 18 17 17 17 17 17 17 16 16 16
19 19 18 19 19 20 18 18 18 17 17 17 16 16 17 18 21 22 22 23 23 23 24 23 23 23 22 22 21 21 20 20 19 19 19 18 18 18 18 18 17 17 17 17 17 17 16 16 16
19 18 19 19 19 18 18 18 17 17 16 16 16 15 16 16 18 21 23 23 23 23 24 23 23 23 22 22 21 20 20 20 19 19 19 19 18 18 18 17 17 17 17 17 17 17 16 16 16
18 18 18 18 17 16 17 16 16 14 14 15 15 15 15 16 18 20 22 23 23 23 23 23 23 22 22 21 21 20 20 20 19 19 18 18 18 17 17 17 17 17 17 17 17 17 16 16 16
18 17 17 17 17 16 16 15 14 13 13 14 15 15 14 15 16 18 20 21 22 22 22 21 21 21 20 20 20 20 19 19 19 18 18 18 17 17 17 17 17 17 17 16 16 16 16 16 15
17 16 15 14 14 15 16 15 14 14 14 14 14 14 14 15 16 17 18 19 20 20 20 20 20 19 19 19 19 19 19 19 18 18 18 18 17 17 17 17 17 17 16 16 16 16 16 15 15
15 15 14 14 13 14 15 14 14 14 14 14 14 14 14 14 15 16 16 17 17 18 18 19 19 18 18 18 18 18 18 18 18 18 17 17 17 17 17 17 16 16 16 16 16 16 15 15 15
14 14 13 14 14 14 15 14 14 14 14 14 14 14 14 14 14 15 15 16 16 16 17 17 17 17 17 17 18 18 18 18 18 17 17 17 17 17 16 16 16 16 16 16 15 15 15 15 15
14 13 13 12 13 14 14 14 14 14 13 13 13 13 13 13 14 14 15 15 16 16 16 16 16 17 17 17 18 18 18 18 18 17 17 17 17 16 16 16 16 16 16 15 15 15 15 15 15
13 12 11 11 12 13 14 13 12 12 12 12 13 13 13 13 14 14 14 14 15 15 15 15 16 16 16 17 17 18 18 18 17 17 17 17 16 16 16 16 16 16 15 15 15 15 15 14 14
12 11 11 11 11 12 13 13 12 11 11 12 12 12 13 13 13 14 14 14 14 14 15 15 16 16 16 17 17 18 18 18 17 17 17 16 16 16 16 16 16 15 15 15 15 15 14 14 14
12 11 11 11 11 12 12 12 12 11 11 12 12 12 12 13 13 14 14 14 15 15 15 15 16 16 17 17 17 18 17 17 17 17 17 16 16 16 16 16 15 15 15 15 15 15 14 14 14
Wind_Speed
5 3 3 3 6 5 2 3 2 1 3 3 3 6 7 4 2 2 2 9 10 12 12 14 14 13 12 11 12 12 13 13 13 14 14 13 12 12 11 10 10 9 9 8 8 8 8 8 8
1 2 3 5 5 3 3 3 2 2 5 5 5 5 5 4 3 5 5 7 11 13 12 14 15 13 12 11 11 12 12 12 13 13 13 12 11 11 10 10 10 9 9 8 8 8 8 8 8
1 2 3 4 4 3 2 2 2 2 4 2 4 4 4 4 5 6 5 10 11 9 11 14 15 13 12 11 11 12 12 12 13 13 12 12 11 10 9 9 9 8 8 8 8 8 9 9 8
3 4 4 5 2 2 3 2 3 6 2 4 4 5 3 2 7 6 10 12 11 9 10 13 15 14 12 12 11 12 12 12 12 12 12 11 10 9 8 8 8 8 7 7 7 8 9 9 9
4 4 5 4 4 5 4 2 4 5 3 3 4 4 3 4 7 12 13 12 11 8 9 11 15 14 13 12 12 12 12 12 12 11 11 11 10 9 8 7 7 7 6 6 6 7 9 9 9
4 4 5 2 6 7 5 2 4 4 4 4 5 4 2 3 8 11 11 10 10 10 9 11 15 14 13 13 12 12 12 11 11 11 11 10 10 9 7 7 6 6 5 5 5 6 8 9 9
4 4 4 1 4 6 4 4 3 5 5 5 6 5 2 3 6 10 9 8 8 8 7 8 11 13 13 13 12 12 12 11 11 11 11 10 9 9 7 6 6 5 4 4 4 5 7 8 8
5 5 4 1 1 5 5 5 1 3 3 4 5 8 6 7 8 8 7 7 7 7 7 6 9 10 10 11 12 12 12 11 11 11 10 10 9 8 7 6 5 5 4 3 3 5 6 7 7
4 5 2 3 2 5 4 4 2 2 5 3 3 6 6 13 11 9 6 4 6 7 6 6 6 8 9 10 11 12 12 12 11 11 10 9 7 6 6 6 5 5 4 3 3 4 6 7 7
4 4 6 4 5 3 4 2 2 3 3 2 3 4 10 14 14 11 9 9 9 9 8 6 7 6 8 9 9 9 9 10 10 9 8 8 7 6 5 5 6 5 4 3 3 4 6 7 6
3 5 4 4 4 3 3 3 1 6 5 7 8 11 14 13 13 13 12 10 10 9 9 9 7 6 6 5 7 7 8 8 9 9 9 9 7 5 4 2 2 2 3 3 4 5 5 5 5
0 2 3 3 2 2 3 3 1 5 6 6 10 17 17 17 17 16 15 12 9 8 10 9 9 7 6 6 5 6 6 6 6 9 10 9 5 4 3 3 2 2 2 2 2 2 2 3 4
1 2 2 4 5 4 4 5 3 3 7 2 10 14 17 17 16 14 12 10 9 10 11 10 10 9 7 5 4 5 5 6 8 9 10 10 5 4 3 3 3 3 2 1 0 1 0 1 3
2 2 2 3 3 2 4 5 1 3 5 4 11 15 15 16 15 12 11 11 12 12 12 11 12 11 9 7 6 5 6 7 8 8 10 11 8 5 4 3 3 4 4 3 2 1 2 2 4
1 1 1 2 3 3 3 4 1 4 5 3 8 11 12 12 11 12 13 13 13 12 12 13 13 11 11 9 8 5 6 7 6 8 11 11 10 8 5 4 4 4 5 4 2 2 3 3 4
3 3 2 3 4 4 3 5 3 3 4 2 4 6 8 10 12 12 12 12 11 10 12 13 13 13 12 10 8 5 6 6 6 8 10 12 12 10 6 4 4 5 6 4 3 3 3 3 4
5 2 2 5 2 3 2 5 6 3 3 4 5 6 7 8 10 12 13 14 13 13 13 14 13 14 13 11 8 6 5 6 7 9 9 11 13 12 8 5 4 5 4 3 4 3 3 3 4
2 2 3 5 3 1 2 6 9 6 4 5 6 6 7 8 12 12 13 14 14 13 13 14 13 12 11 8 6 5 5 5 5 6 9 11 12 12 9 5 5 5 4 4 4 4 3 3 4
2 3 5 7 4 2 5 7 8 7 8 9 8 8 9 11 11 10 12 14 15 14 15 14 14 12 11 8 7 6 6 5 5 5 8 10 10 11 9 6 5 5 5 5 5 4 4 3 3
3 4 6 6 2 3 5 7 4 5 6 8 9 10 11 13 12 10 10 13 17 18 17 16 15 14 13 10 7 4 3 3 3 3 4 8 9 9 9 7 6 6 5 6 6 5 4 3 4
4 5 6 6 3 2 3 6 3 4 5 10 12 11 12 14 15 14 11 12 14 17 16 13 13 12 10 8 6 4 3 2 2 4 4 5 7 8 7 7 6 7 7 7 8 8 7 5 3
5 6 5 4 1 4 1 4 5 7 8 14 17 17 17 18 16 13 9 8 10 12 11 10 10 10 8 8 7 7 6 5 5 3 3 4 6 6 7 7 7 7 7 7 8 8 6 6 5
5 6 2 1 3 1 1 3 6 7 9 14 17 17 18 18 16 13 8 3 3 6 8 9 10 10 9 7 6 5 4 3 2 2 3 3 4 5 6 6 6 7 7 8 8 8 8 6 6
4 5 4 5 3 2 4 5 3 5 8 14 15 16 17 17 16 14 11 8 8 8 10 12 12 9 8 6 4 5 5 4 3 2 2 2 2 2 4 4 5 6 6 7 7 8 9 8 7
8 6 5 5 2 5 1 3 1 4 7 9 13 15 16 14 13 12 12 10 10 11 10 10 13 9 6 5 3 4 4 4 4 3 3 2 2 2 3 4 4 4 5 5 6 7 8 9 9
5 1 2 4 4 4 1 3 2 4 8 9 10 11 13 13 11 10 9 8 10 11 10 9 9 6 3 3 4 3 4 3 3 3 3 3 3 2 2 3 4 4 4 5 5 5 6 7 9
6 4 2 2 3 3 2 1 1 9 14 15 15 14 14 13 11 9 7 8 10 10 9 7 6 5 1 2 3 3 4 4 4 3 3 3 2 2 3 3 3 3 3 4 4 4 5 6 7
4 2 4 2 2 3 1 2 5 14 18 18 17 16 15 13 10 8 6 7 8 9 7 6 5 3 1 1 2 3 3 4 4 4 4 4 3 3 4 4 3 2 2 3 3 3 4 5 5
7 6 4 2 3 2 1 2 6 11 14 15 15 14 13 13 9 7 6 6 7 6 4 3 2 1 0 1 2 4 4 4 4 3 3 3 3 4 4 4 4 3 2 2 2 2 3 4 4
3 4 3 2 4 2 0 2 8 11 12 13 14 14 13 12 8 6 6 5 5 4 3 2 2 1 0 2 3 4 4 4 4 3 2 2 3 4 4 4 4 3 3 2 2 2 2 2 2
Wind_Direction
339 66 95 58 48 47 15 313 281 335 50 38 74 94 101 95 128 159 125 144 138 148 161 160 156 152 148 147 147 146 142 140 136 130 127 124 121 119 115 110 107 102 99 98 103 108 108 107 103
333 110 63 58 75 60 313 300 260 208 130 135 83 78 81 77 85 114 130 148 145 150 156 158 159 155 153 151 151 150 147 144 139 134 131 127 123 120 117 114 110 104 99 97 97 103 106 106 104
279 97 79 66 86 156 261 270 221 90 126 113 77 61 91 121 134 154 155 143 143 147 150 161 161 159 157 155 154 152 150 147 143 140 137 132 127 122 120 116 112 107 101 95 92 95 99 100 95
87 54 56 66 35 253 251 264 170 132 96 63 96 74 61 90 151 153 139 143 144 143 148 165 164 163 162 160 157 155 152 150 148 147 143 138 133 129 127 123 119 115 108 98 89 88 89 88 82
60 78 59 38 338 304 281 253 167 146 126 88 101 100 46 18 115 131 140 146 146 143 151 170 167 167 166 163 160 158 156 154 154 152 148 144 140 138 136 133 127 121 115 103 88 80 80 75 71
54 65 77 24 324 316 312 317 148 133 125 118 112 101 51 111 126 140 145 147 150 152 155 171 171 171 171 168 165 163 161 161 160 157 153 151 148 143 141 141 137 131 123 110 88 73 72 67 64
100 88 114 114 329 324 341 5 147 144 143 161 135 111 105 158 151 142 141 140 146 155 156 166 170 173 175 173 171 170 168 167 165 160 158 156 152 147 148 150 149 145 137 122 91 70 64 59 57
117 101 94 93 350 295 321 337 241 151 151 126 127 145 179 186 153 131 124 134 148 158 161 159 163 167 170 174 176 174 173 172 169 163 163 162 157 155 156 157 161 158 152 131 90 67 59 58 55
91 78 144 194 201 267 319 346 349 95 120 120 153 176 184 147 141 129 124 140 164 173 169 164 161 161 162 168 179 177 176 174 170 167 170 161 148 146 150 161 172 168 159 135 90 70 67 64 53
83 130 211 207 195 234 302 287 261 114 123 124 87 101 128 143 156 163 171 177 184 186 183 173 170 163 163 173 172 168 168 167 163 161 158 145 146 150 152 178 180 176 165 136 98 74 69 67 57
124 176 218 237 218 231 288 294 245 144 195 211 190 162 150 160 171 182 188 187 191 187 188 183 178 171 169 165 158 159 157 156 158 160 155 152 152 155 151 166 167 121 115 76 53 53 61 62 62
127 242 224 261 231 230 258 295 307 191 236 242 190 165 163 173 184 192 195 194 186 179 191 185 183 178 179 171 165 162 159 160 163 167 164 159 156 162 165 173 165 118 102 87 39 40 51 68 83
229 273 264 293 297 271 276 270 264 271 306 255 155 164 176 185 193 199 199 195 186 188 191 186 183 183 181 174 174 172 172 172 173 173 176 175 169 173 176 181 181 173 166 164 207 1 44 130 122
246 254 286 314 312 322 292 285 267 319 338 135 162 180 188 194 196 196 199 199 197 197 193 186 185 186 182 183 184 179 180 177 176 182 187 189 186 180 176 182 188 195 191 185 185 209 166 146 133
291 316 0 6 351 330 321 318 342 325 345 171 189 196 200 207 205 208 209 208 203 200 194 189 189 186 186 189 191 185 184 179 181 191 195 197 199 195 187 188 196 196 185 173 152 117 118 120 121
38 45 347 321 359 345 27 297 300 328 15 308 259 236 223 221 220 219 217 217 209 200 195 195 194 189 190 190 190 183 183 182 187 192 197 203 207 205 194 198 210 188 167 160 147 132 113 117 126
30 25 308 309 345 7 36 280 290 332 355 307 293 275 260 253 245 234 224 220 214 206 199 196 195 189 191 189 185 184 180 187 190 191 197 205 210 207 199 206 213 181 161 163 166 148 141 149 146
270 267 273 279 295 348 294 274 296 333 342 320 312 306 293 271 255 244 232 226 219 211 204 200 195 187 180 174 169 177 191 197 192 194 201 202 207 205 199 205 209 182 173 180 172 158 140 143 147
211 224 256 260 262 251 261 275 300 340 12 3 352 336 318 298 280 260 236 224 219 213 206 199 194 184 173 171 175 184 203 202 202 201 202 201 202 200 197 201 198 187 192 193 175 153 147 132 132
213 246 263 278 287 229 274 284 319 25 32 11 359 347 333 323 312 289 253 226 217 212 208 200 195 187 182 184 175 166 161 181 195 193 196 200 198 196 199 195 194 192 191 186 179 159 150 152 161
258 232 248 260 327 22 331 314 348 0 13 9 5 352 344 335 322 305 275 235 218 212 206 198 189 181 176 165 143 114 104 103 156 198 205 199 194 195 197 193 190 190 188 194 191 178 169 168 180
285 282 259 257 264 280 13 287 307 342 349 1 357 353 346 339 330 318 293 248 217 207 190 172 162 153 151 153 165 171 184 197 208 198 198 193 194 197 198 193 189 192 193 197 196 186 178 165 175
291 324 330 274 195 249 283 217 299 357 355 347 345 346 344 342 340 338 333 296 193 173 147 135 130 128 132 148 170 187 199 196 163 158 183 193 194 198 198 194 188 194 197 199 194 184 183 182 177
342 4 25 42 89 234 231 185 310 9 342 331 337 343 344 345 349 355 8 33 57 79 101 110 106 102 113 122 158 194 198 180 163 174 181 188 188 198 196 186 187 194 197 197 195 191 189 192 186
24 33 356 340 356 244 251 151 143 356 341 331 332 338 342 345 354 4 14 33 50 61 74 88 94 87 88 110 170 193 189 175 177 183 189 184 189 206 206 186 185 189 196 195 188 190 196 195 197
339 72 205 254 246 281 321 169 148 5 343 337 336 336 344 348 352 4 16 40 53 52 57 71 89 99 111 163 185 175 159 158 172 182 179 185 191 201 189 178 180 187 187 188 186 194 200 201 208
357 346 265 237 264 258 266 87 64 357 355 349 348 348 347 345 350 1 18 48 62 59 48 52 71 75 96 185 157 154 157 158 167 166 159 162 165 163 144 143 149 168 183 187 184 199 207 204 211
32 325 20 10 262 245 248 70 359 348 344 342 344 343 339 341 349 2 23 50 59 58 47 40 45 52 284 186 167 154 152 151 147 142 152 153 147 135 132 129 133 140 160 178 184 204 212 212 218
358 6 0 301 255 238 210 73 14 344 335 335 337 338 339 344 350 5 27 37 54 57 49 35 33 31 172 153 139 125 129 130 130 135 148 151 148 149 151 148 144 144 143 141 159 195 202 216 225
30 356 337 319 311 312 146 73 9 344 339 344 346 349 351 352 356 12 29 33 46 40 13 312 293 303 184 138 126 123 117 118 124 130 137 154 164 169 165 158 156 162 159 155 161 178 181 204 222
Height
1494 1493 1493 1494 1497 1509 1510 1503 1498 1496 1495 1496 1496 1496 1498 1501 1505 1509 1506 1506 1508 1511 1513 1516 1519 1522 1524 1526 1527 1528 1529 1530 1532 1533 1534 1535 1536 1537 1537 1538 1539 1539 1540 1540 1540 1541 1542 1542 1543
1494 1494 1495 1496 1507 1520 1513 1501 1499 1496 1496 1497 1497 1498 1499 1501 1502 1503 1504 1507 1509 1512 1514 1517 1520 1522 1524 1526 1528 1529 1530 1531 1533 1534 1535 1536 1537 1538 1538 1539 1540 1540 1540 1541 1541 1542 1543 1543 1544
1495 1495 1497 1499 1509 1516 1509 1499 1497 1496 1497 1497 1498 1499 1500 1502 1503 1504 1506 1508 1510 1512 1515 1517 1520 1522 1524 1526 1528 1529 1531 1532 1533 1535 1536 1537 1538 1539 1539 1540 1540 1541 1541 1542 1542 1543 1544 1544 1545
1496 1497 1498 1504 1509 1505 1502 1497 1496 1497 1497 1497 1498 1501 1502 1504 1504 1506 1507 1508 1510 1513 1515 1518 1520 1522 1525 1526 1528 1530 1531 1533 1534 1535 1536 1537 1538 1539 1540 1540 1541 1541 1542 1543 1543 1544 1544 1545 1546
1496 1496 1503 1510 1508 1502 1498 1496 1496 1497 1497 1498 1499 1501 1503 1504 1505 1506 1507 1509 1511 1513 1515 1518 1520 1523 1524 1526 1528 1530 1531 1533 1534 1535 1537 1537 1538 1539 1540 1541 1541 1542 1543 1544 1544 1545 1545 1546 1547
1497 1498 1511 1516 1510 1502 1497 1495 1496 1497 1498 1498 1499 1502 1504 1505 1506 1507 1509 1510 1512 1514 1516 1518 1520 1523 1524 1526 1528 1529 1531 1533 1534 1536 1537 1538 1539 1539 1540 1541 1542 1542 1543 1544 1545 1546 1546 1547 1548
1498 1503 1512 1512 1511 1505 1498 1496 1496 1497 1497 1499 1499 1502 1504 1505 1507 1508 1510 1511 1513 1514 1516 1518 1520 1522 1524 1526 1528 1529 1531 1533 1534 1536 1537 1538 1539 1540 1540 1541 1542 1543 1544 1545 1546 1547 1547 1548 1549
1497 1503 1510 1512 1511 1506 1499 1497 1497 1498 1498 1499 1500 1501 1503 1505 1507 1509 1511 1512 1513 1515 1516 1518 1520 1522 1524 1526 1528 1529 1531 1533 1534 1536 1537 1538 1539 1540 1541 1542 1543 1544 1545 1546 1546 1547 1548 1549 1550
1497 1507 1513 1509 1508 1504 1499 1498 1498 1498 1499 1500 1500 1501 1502 1504 1507 1509 1510 1512 1513 1514 1516 1518 1520 1521 1523 1525 1527 1529 1531 1533 1534 1536 1537 1538 1539 1540 1541 1542 1543 1544 1545 1546 1547 1547 1548 1549 1550
1498 1509 1506 1501 1501 1500 1499 1499 1498 1498 1499 1499 1500 1500 1502 1504 1506 1507 1509 1510 1512 1513 1515 1517 1519 1521 1522 1524 1526 1528 1530 1532 1534 1535 1537 1538 1539 1540 1541 1542 1543 1544 1545 1546 1547 1548 1549 1550 1551
1498 1502 1499 1498 1498 1498 1498 1498 1497 1497 1499 1497 1497 1498 1500 1502 1505 1506 1508 1510 1511 1513 1514 1516 1518 1520 1521 1523 1525 1527 1529 1531 1533 1534 1536 1537 1539 1540 1541 1542 1543 1544 1546 1547 1548 1549 1550 1551 1553
1500 1499 1498 1497 1497 1497 1498 1497 1497 1496 1496 1495 1495 1496 1498 1500 1502 1504 1506 1508 1511 1512 1514 1515 1517 1519 1520 1522 1524 1526 1528 1530 1532 1534 1535 1537 1538 1540 1541 1542 1543 1545 1546 1548 1549 1551 1551 1553 1554
1500 1499 1499 1498 1497 1497 1497 1496 1497 1496 1495 1493 1494 1496 1497 1499 1501 1503 1506 1508 1510 1512 1513 1515 1516 1518 1520 1521 1523 1525 1527 1529 1531 1533 1535 1537 1538 1539 1541 1542 1544 1545 1547 1549 1550 1551 1552 1553 1554
1500 1499 1499 1498 1497 1497 1496 1495 1495 1494 1493 1493 1493 1494 1495 1497 1499 1502 1504 1506 1508 1510 1512 1514 1516 1517 1519 1520 1522 1524 1526 1528 1530 1532 1534 1536 1538 1539 1541 1542 1544 1546 1547 1549 1550 1552 1552 1553 1554
1499 1500 1500 1499 1498 1497 1497 1497 1496 1495 1493 1493 1493 1493 1495 1497 1499 1500 1502 1504 1506 1509 1511 1513 1515 1516 1518 1520 1521 1523 1525 1527 1529 1531 1533 1535 1537 1539 1541 1542 1544 1546 1547 1549 1550 1551 1552 1553 1554
1499 1503 1507 1501 1498 1497 1500 1504 1496 1495 1494 1494 1494 1494 1495 1495 1497 1498 1501 1503 1505 1507 1509 1511 1513 1515 1516 1518 1520 1522 1524 1526 1528 1530 1532 1534 1536 1538 1540 1541 1543 1545 1547 1548 1550 1551 1552 1553 1554
1508 1513 1511 1505 1499 1498 1500 1502 1496 1495 1494 1494 1494 1494 1494 1495 1496 1497 1498 1500 1502 1504 1507 1508 1510 1512 1514 1517 1519 1521 1523 1525 1527 1529 1530 1532 1535 1537 1539 1541 1542 1544 1546 1547 1548 1550 1551 1552 1553
1513 1513 1512 1509 1500 1500 1502 1501 1496 1495 1494 1494 1494 1493 1493 1492 1492 1493 1495 1496 1499 1501 1504 1506 1508 1510 1513 1515 1518 1520 1521 1523 1525 1527 1529 1530 1532 1534 1536 1538 1540 1542 1543 1545 1546 1548 1549 1551 1552
1506 1510 1512 1507 1499 1501 1502 1502 1498 1496 1495 1495 1494 1492 1490 1488 1488 1488 1489 1491 1493 1496 1498 1501 1504 1506 1509 1511 1514 1517 1519 1521 1523 1525 1527 1528 1530 1531 1533 1534 1537 1539 1540 1542 1544 1545 1547 1549 1550
1506 1510 1511 1505 1499 1500 1503 1502 1499 1498 1498 1498 1496 1493 1489 1485 1481 1481 1481 1483 1485 1488 1491 1495 1498 1501 1505 1508 1511 1514 1517 1519 1522 1523 1525 1526 1527 1528 1530 1531 1533 1535 1536 1538 1540 1542 1544 1546 1548
1507 1510 1508 1507 1502 1501 1504 1505 1502 1500 1499 1497 1495 1492 1488 1484 1479 1475 1475 1476 1477 1480 1483 1487 1492 1496 1501 1505 1509 1512 1514 1516 1519 1520 1522 1523 1524 1525 1526 1527 1529 1530 1532 1534 1535 1537 1539 1541 1544
1512 1503 1503 1504 1509 1514 1509 1520 1507 1505 1501 1497 1495 1491 1486 1480 1475 1471 1469 1469 1470 1473 1476 1482 1487 1492 1497 1502 1506 1509 1511 1513 1515 1517 1519 1520 1521 1522 1523 1524 1525 1526 1528 1529 1531 1532 1534 1536 1539
1508 1503 1503 1504 1508 1514 1513 1519 1515 1509 1507 1501 1497 1493 1488 1481 1475 1469 1465 1464 1466 1469 1472 1477 1483 1488 1494 1499 1503 1506 1508 1510 1512 1513 1515 1516 1517 1518 1519 1520 1521 1522 1523 1524 1526 1527 1529 1531 1533
1507 1507 1508 1512 1515 1522 1513 1519 1519 1514 1511 1505 1499 1494 1489 1482 1476 1470 1466 1464 1464 1467 1470 1474 1480 1486 1491 1497 1502 1504 1506 1508 1509 1511 1512 1513 1514 1515 1516 1517 1518 1519 1519 1520 1521 1522 1524 1525 1528
1513 1519 1528 1526 1529 1524 1512 1516 1519 1513 1510 1507 1502 1496 1490 1485 1479 1474 1470 1467 1466 1468 1471 1474 1477 1485 1489 1495 1500 1503 1505 1507 1508 1509 1510 1511 1512 1513 1514 1515 1515 1516 1516 1517 1517 1518 1519 1521 1523
1519 1522 1534 1536 1532 1524 1513 1517 1516 1512 1509 1506 1502 1497 1491 1486 1481 1477 1474 1471 1470 1471 1473 1476 1480 1487 1491 1495 1500 1502 1504 1506 1508 1509 1509 1510 1510 1511 1511 1512 1512 1512 1513 1513 1514 1515 1516 1517 1518
1524 1526 1525 1530 1526 1525 1519 1516 1513 1510 1508 1505 1501 1496 1492 1487 1483 1479 1476 1474 1473 1474 1477 1479 1483 1488 1493 1497 1500 1502 1503 1505 1507 1508 1508 1509 1509 1509 1510 1510 1510 1510 1510 1510 1511 1511 1512 1513 1514
1526 1527 1531 1533 1533 1531 1522 1521 1524 1518 1514 1507 1502 1498 1493 1488 1484 1481 1479 1477 1476 1477 1479 1483 1486 1490 1495 1497 1500 1501 1503 1505 1506 1507 1508 1508 1508 1508 1508 1508 1508 1508 1508 1508 1508 1508 1509 1509 1510
1532 1532 1532 1533 1531 1532 1530 1530 1525 1523 1518 1512 1505 1500 1494 1488 1485 1482 1481 1480 1480 1481 1483 1486 1489 1493 1496 1498 1500 1502 1503 1504 1505 1506 1507 1507 1507 1507 1507 1507 1507 1507 1507 1506 1506 1506 1506 1506 1506
1533 1535 1535 1537 1533 1528 1529 1533 1526 1523 1518 1512 1506 1500 1495 1490 1486 1484 1483 1483 1484 1486 1488 1490 1491 1493 1495 1497 1499 1501 1502 1503 1504 1505 1505 1506 1506 1506 1506 1506 1506 1506 1506 1505 1505 1504 1504 1504 1503